Retour au catalogue

FENGYUN 1C DEB

ActifPO
NORAD 30146·DEBRIS·🇨🇳 China

Lancé May 10, 1999 depuis Taiyuan Satellite Launch Center

Loading…

Prochains Passages (prochaines 24 heures)

TLE

FraisSource: Space-Track

Époque: Sep 14, 2026, 14:25 UTC

1 30146U 99025TB  26257.60114793  .00000350  00000-0  28881-3 0  9990
2 30146  98.0543  23.7470 0178490  76.4326 347.3267 13.86984942992416

Suivez FENGYUN 1C DEB en temps réel avec AllMySat

Download on the App Store